Time,TemperatureF,DewpointF,PressureIn,WindDirection,WindDirectionDegrees,WindSpeedMPH,WindSpeedGustMPH,Humidity,HourlyPrecipIn,Conditions,Clouds,dailyrainin,SoftwareType,DateUTC
2014-09-17 00:11:00,47.9,46.0,29.95,SW,222,0.0,0.0,93,0.00,,,0.00,weatherlink.com 1.10,2014-09-17 03:11:00,
2014-09-17 00:26:00,47.9,46.0,29.95,SW,222,0.0,0.0,93,0.00,,,0.00,weatherlink.com 1.10,2014-09-17 03:26:00,
2014-09-17 00:41:00,47.8,46.0,29.95,NNE,22,0.0,0.0,93,0.00,,,0.00,weatherlink.com 1.10,2014-09-17 03:41:00,
2014-09-17 00:56:00,47.6,46.0,29.95,SE,124,0.0,0.0,93,0.00,,,0.00,weatherlink.com 1.10,2014-09-17 03:56:00,
2014-09-17 01:11:00,47.4,46.0,29.95,SSW,204,0.0,0.0,94,0.00,,,0.00,weatherlink.com 1.10,2014-09-17 04:11:00,
2014-09-17 01:26:00,47.4,46.0,29.94,SSW,204,0.0,0.0,94,0.00,,,0.00,weatherlink.com 1.10,2014-09-17 04:26:00,
2014-09-17 01:41:00,47.7,46.0,29.94,West,259,0.0,1.0,94,0.00,,,0.00,weatherlink.com 1.10,2014-09-17 04:41:00,
2014-09-17 01:56:00,47.9,46.0,29.94,SW,236,0.0,0.0,94,0.00,,,0.00,weatherlink.com 1.10,2014-09-17 04:56:00,
2014-09-17 02:11:00,47.8,46.0,29.94,NNW,338,0.0,0.0,94,0.00,,,0.00,weatherlink.com 1.10,2014-09-17 05:11:00,
2014-09-17 02:26:00,48.1,46.0,29.94,SW,224,0.0,0.0,93,0.00,,,0.00,weatherlink.com 1.10,2014-09-17 05:26:00,
2014-09-17 02:41:00,47.9,46.0,29.94,SW,224,0.0,0.0,94,0.00,,,0.00,weatherlink.com 1.10,2014-09-17 05:41:00,
2014-09-17 02:56:00,47.5,46.0,29.94,SW,224,0.0,0.0,94,0.00,,,0.00,weatherlink.com 1.10,2014-09-17 05:56:00,
2014-09-17 03:11:00,47.6,46.0,29.94,SW,225,0.0,0.0,95,0.00,,,0.00,weatherlink.com 1.10,2014-09-17 06:11:00,
2014-09-17 03:26:00,48.2,47.0,29.94,SW,225,0.0,0.0,95,0.00,,,0.00,weatherlink.com 1.10,2014-09-17 06:26:00,
2014-09-17 03:41:00,48.9,48.0,29.93,WSW,246,2.0,2.0,96,0.00,,,0.00,weatherlink.com 1.10,2014-09-17 06:41:00,
2014-09-17 03:56:00,50.0,48.0,29.93,SW,224,1.0,2.0,94,0.00,,,0.00,weatherlink.com 1.10,2014-09-17 06:56:00,
2014-09-17 04:11:00,50.6,49.0,29.93,SW,231,0.0,3.0,93,0.00,,,0.00,weatherlink.com 1.10,2014-09-17 07:11:00,
2014-09-17 04:26:00,50.4,49.0,29.93,SW,229,1.0,2.0,93,0.00,,,0.00,weatherlink.com 1.10,2014-09-17 07:26:00,
2014-09-17 04:42:00,50.1,48.0,29.93,SW,224,1.0,2.0,92,0.00,,,0.00,weatherlink.com 1.10,2014-09-17 07:42:00,
2014-09-17 04:57:00,49.8,48.0,29.93,WSW,249,0.0,3.0,92,0.00,,,0.00,weatherlink.com 1.10,2014-09-17 07:57:00,
2014-09-17 05:12:00,49.2,47.0,29.93,SW,226,0.0,1.0,93,0.00,,,0.00,weatherlink.com 1.10,2014-09-17 08:12:00,
2014-09-17 05:27:00,48.9,47.0,29.93,SW,231,0.0,2.0,93,0.00,,,0.00,weatherlink.com 1.10,2014-09-17 08:27:00,
2014-09-17 05:42:00,47.9,46.0,29.93,SW,226,0.0,0.0,93,0.00,,,0.00,weatherlink.com 1.10,2014-09-17 08:42:00,
2014-09-17 05:57:00,47.7,46.0,29.93,SW,233,0.0,2.0,93,0.00,,,0.00,weatherlink.com 1.10,2014-09-17 08:57:00,
2014-09-17 06:12:00,48.1,46.0,29.93,WSW,249,1.0,3.0,92,0.00,,,0.00,weatherlink.com 1.10,2014-09-17 09:12:00,
2014-09-17 06:27:00,47.5,45.0,29.93,WSW,243,0.0,1.0,91,0.00,,,0.00,weatherlink.com 1.10,2014-09-17 09:27:00,
2014-09-17 06:42:00,47.3,45.0,29.94,SW,224,0.0,2.0,91,0.00,,,0.00,weatherlink.com 1.10,2014-09-17 09:42:00,
2014-09-17 06:57:00,47.9,45.0,29.95,WSW,252,0.0,2.0,90,0.00,,,0.00,weatherlink.com 1.10,2014-09-17 09:57:00,
2014-09-17 07:12:00,48.6,46.0,29.95,WSW,246,1.0,3.0,89,0.00,,,0.00,weatherlink.com 1.10,2014-09-17 10:12:00,
2014-09-17 07:27:00,49.4,46.0,29.95,SW,233,1.0,3.0,88,0.00,,,0.00,weatherlink.com 1.10,2014-09-17 10:27:00,
2014-09-17 07:42:00,50.8,47.0,29.95,WSW,249,2.0,3.0,87,0.00,,,0.00,weatherlink.com 1.10,2014-09-17 10:42:00,
2014-09-17 07:57:00,52.1,48.0,29.95,WSW,243,1.0,3.0,85,0.00,,,0.00,weatherlink.com 1.10,2014-09-17 10:57:00,
2014-09-17 08:12:00,53.8,48.0,29.95,SW,223,1.0,3.0,81,0.00,,,0.00,weatherlink.com 1.10,2014-09-17 11:12:00,
2014-09-17 08:27:00,55.0,49.0,29.96,WSW,243,2.0,4.0,79,0.00,,,0.00,weatherlink.com 1.10,2014-09-17 11:27:00,
2014-09-17 08:42:00,55.7,48.0,29.96,SW,225,4.0,6.0,76,0.00,,,0.00,weatherlink.com 1.10,2014-09-17 11:42:00,
2014-09-17 08:57:00,56.4,49.0,29.96,WSW,243,3.0,5.0,75,0.00,,,0.00,weatherlink.com 1.10,2014-09-17 11:57:00,
2014-09-17 09:12:00,57.5,49.0,29.96,SW,214,4.0,6.0,73,0.00,,,0.00,weatherlink.com 1.10,2014-09-17 12:12:00,
2014-09-17 09:27:00,57.9,48.0,29.96,SSW,207,5.0,6.0,69,0.00,,,0.00,weatherlink.com 1.10,2014-09-17 12:27:00,
2014-09-17 09:42:00,59.8,49.0,29.96,WSW,239,5.0,6.0,67,0.00,,,0.00,weatherlink.com 1.10,2014-09-17 12:42:00,
2014-09-17 09:57:00,61.9,51.0,29.96,ENE,63,1.0,6.0,68,0.00,,,0.00,weatherlink.com 1.10,2014-09-17 12:57:00,
2014-09-17 10:12:00,63.4,52.0,29.96,NE,49,1.0,6.0,67,0.00,,,0.00,weatherlink.com 1.10,2014-09-17 13:12:00,
2014-09-17 10:27:00,64.3,54.0,29.96,NE,36,0.0,6.0,69,0.00,,,0.00,weatherlink.com 1.10,2014-09-17 13:27:00,
2014-09-17 10:42:00,64.8,55.0,29.96,SE,127,0.0,8.0,70,0.00,,,0.00,weatherlink.com 1.10,2014-09-17 13:42:00,
2014-09-17 10:57:00,65.7,55.0,29.95,SW,222,5.0,6.0,69,0.00,,,0.00,weatherlink.com 1.10,2014-09-17 13:57:00,
2014-09-17 11:13:00,65.8,54.0,29.95,SSW,208,1.0,7.0,67,0.00,,,0.00,weatherlink.com 1.10,2014-09-17 14:13:00,
2014-09-17 11:28:00,65.1,54.0,29.96,WSW,243,5.0,11.0,68,0.00,,,0.00,weatherlink.com 1.10,2014-09-17 14:28:00,
2014-09-17 11:43:00,64.8,54.0,29.96,WSW,252,6.0,11.0,69,0.00,,,0.00,weatherlink.com 1.10,2014-09-17 14:43:00,
2014-09-17 11:58:00,65.7,54.0,29.95,WSW,250,5.0,9.0,66,0.00,,,0.00,weatherlink.com 1.10,2014-09-17 14:58:00,
2014-09-17 12:13:00,65.4,54.0,29.95,SW,228,10.0,11.0,67,0.00,,,0.00,weatherlink.com 1.10,2014-09-17 15:13:00,